Time,TemperatureF,DewpointF,PressureIn,WindDirection,WindDirectionDegrees,WindSpeedMPH,WindSpeedGustMPH,Humidity,HourlyPrecipIn,Conditions,Clouds,dailyrainin,SolarRadiationWatts/m^2,SoftwareType,DateUTC
2013-09-08 00:13:00,49.0,48.0,-100.00,NW,315,0.0,3.0,95,0.00,,,0.04,0.000000,,2013-09-08 06:13:00,
2013-09-08 00:21:00,49.0,48.0,-100.00,NW,315,0.0,3.0,95,0.00,,,0.04,0.000000,,2013-09-08 06:21:00,
2013-09-08 00:33:00,49.0,48.0,-100.00,NW,315,0.0,3.0,95,0.00,,,0.04,0.000000,,2013-09-08 06:33:00,
2013-09-08 01:12:00,48.0,47.0,-100.00,SSE,167,0.0,2.0,96,0.00,,,0.04,0.000000,,2013-09-08 07:12:00,
2013-09-08 01:23:00,48.0,47.0,-100.00,SSE,167,0.0,2.0,96,0.00,,,0.04,0.000000,,2013-09-08 07:23:00,
2013-09-08 01:31:00,48.0,47.0,-100.00,SSE,167,0.0,2.0,96,0.00,,,0.04,0.000000,,2013-09-08 07:31:00,
2013-09-08 02:11:00,47.0,46.0,-100.00,SW,230,0.0,2.0,96,0.00,,,0.04,0.000000,,2013-09-08 08:11:00,
2013-09-08 02:22:00,47.0,46.0,-100.00,SW,230,0.0,2.0,96,0.00,,,0.04,0.000000,,2013-09-08 08:22:00,
2013-09-08 02:32:00,47.0,46.0,-100.00,SW,230,0.0,2.0,96,0.00,,,0.04,0.000000,,2013-09-08 08:32:00,
2013-09-08 03:11:00,45.0,44.0,-100.00,NE,52,0.0,3.0,96,0.00,,,0.04,0.000000,,2013-09-08 09:11:00,
2013-09-08 03:22:00,45.0,44.0,-100.00,NE,52,0.0,3.0,96,0.00,,,0.04,0.000000,,2013-09-08 09:22:00,
2013-09-08 03:33:00,45.0,44.0,-100.00,NE,52,0.0,3.0,96,0.00,,,0.04,0.000000,,2013-09-08 09:33:00,
2013-09-08 04:12:00,46.0,45.0,-100.00,North,2,0.0,0.0,98,0.00,,,0.04,0.000000,,2013-09-08 10:12:00,
2013-09-08 04:23:00,46.0,45.0,-100.00,North,2,0.0,0.0,98,0.00,,,0.04,0.000000,,2013-09-08 10:23:00,
2013-09-08 04:33:00,46.0,45.0,-100.00,North,2,0.0,0.0,98,0.00,,,0.04,0.000000,,2013-09-08 10:33:00,
2013-09-08 05:12:00,46.0,45.0,-100.00,South,186,0.0,0.0,98,0.00,,,0.04,0.000000,,2013-09-08 11:12:00,
2013-09-08 05:21:00,46.0,45.0,-100.00,South,186,0.0,0.0,98,0.00,,,0.04,0.000000,,2013-09-08 11:21:00,
2013-09-08 05:33:00,46.0,45.0,-100.00,South,186,0.0,0.0,98,0.00,,,0.04,0.000000,,2013-09-08 11:33:00,
2013-09-08 06:12:00,45.0,44.0,-100.00,East,100,0.0,3.0,98,0.00,,,0.04,0.000000,,2013-09-08 12:12:00,
2013-09-08 06:21:00,45.0,44.0,-100.00,East,100,0.0,3.0,98,0.00,,,0.04,0.000000,,2013-09-08 12:21:00,
2013-09-08 06:32:00,45.0,44.0,-100.00,East,100,0.0,3.0,98,0.00,,,0.04,0.000000,,2013-09-08 12:32:00,
2013-09-08 07:11:00,44.0,43.0,-100.00,SSW,192,0.0,0.0,97,0.00,,,0.04,0.000000,,2013-09-08 13:11:00,
2013-09-08 07:22:00,44.0,43.0,-100.00,SSW,192,0.0,0.0,97,0.00,,,0.04,0.000000,,2013-09-08 13:22:00,
2013-09-08 07:31:00,44.0,43.0,-100.00,SSW,192,0.0,0.0,97,0.00,,,0.04,0.000000,,2013-09-08 13:31:00,
2013-09-08 08:11:00,43.0,42.0,-100.00,SE,143,0.0,0.0,97,0.00,,,0.04,5.000000,,2013-09-08 14:11:00,
2013-09-08 08:22:00,43.0,42.0,-100.00,SE,143,0.0,0.0,97,0.00,,,0.04,5.000000,,2013-09-08 14:22:00,
2013-09-08 08:31:00,43.0,42.0,-100.00,SE,143,0.0,0.0,97,0.00,,,0.04,5.000000,,2013-09-08 14:31:00,
2013-09-08 09:12:00,46.0,46.0,-100.00,West,281,0.0,2.0,99,0.00,,,0.04,40.000000,,2013-09-08 15:12:00,
2013-09-08 09:23:00,46.0,46.0,-100.00,West,281,0.0,2.0,99,0.00,,,0.04,40.000000,,2013-09-08 15:23:00,
2013-09-08 09:34:00,46.0,46.0,-100.00,West,281,0.0,2.0,99,0.00,,,0.04,40.000000,,2013-09-08 15:34:00,
2013-09-08 10:14:00,56.0,50.0,-100.00,WNW,282,1.0,4.0,81,0.00,,,0.04,325.000000,,2013-09-08 16:14:00,
2013-09-08 10:23:00,56.0,50.0,-100.00,WNW,282,1.0,4.0,81,0.00,,,0.04,325.000000,,2013-09-08 16:23:00,
2013-09-08 10:34:00,56.0,50.0,-100.00,WNW,282,1.0,4.0,81,0.00,,,0.04,325.000000,,2013-09-08 16:34:00,
2013-09-08 11:12:00,60.0,52.0,-100.00,WNW,289,2.0,4.0,74,0.00,,,0.04,198.000000,,2013-09-08 17:12:00,
2013-09-08 11:23:00,60.0,52.0,-100.00,WNW,289,2.0,4.0,74,0.00,,,0.04,198.000000,,2013-09-08 17:23:00,
2013-09-08 11:33:00,60.0,52.0,-100.00,WNW,289,2.0,4.0,74,0.00,,,0.04,198.000000,,2013-09-08 17:33:00,
2013-09-08 12:13:00,67.0,49.0,-100.00,SSW,206,4.0,9.0,52,0.00,,,0.04,450.000000,,2013-09-08 18:13:00,
2013-09-08 12:22:00,67.0,49.0,-100.00,SSW,206,4.0,9.0,52,0.00,,,0.04,450.000000,,2013-09-08 18:22:00,
2013-09-08 12:32:00,67.0,49.0,-100.00,SSW,206,4.0,9.0,52,0.00,,,0.04,450.000000,,2013-09-08 18:32:00,
2013-09-08 13:12:00,70.0,48.0,-100.00,SSW,195,6.0,11.0,46,0.01,,,0.05,347.000000,,2013-09-08 19:12:00,
2013-09-08 13:22:00,70.0,48.0,-100.00,SSW,195,6.0,11.0,46,0.01,,,0.05,347.000000,,2013-09-08 19:22:00,
2013-09-08 13:32:00,70.0,48.0,-100.00,SSW,195,6.0,11.0,46,0.01,,,0.05,347.000000,,2013-09-08 19:32:00,
2013-09-08 14:11:00,72.0,44.0,-100.00,SSW,203,5.0,12.0,37,0.00,,,0.05,669.000000,,2013-09-08 20:11:00,
2013-09-08 14:22:00,72.0,44.0,-100.00,SSW,203,5.0,12.0,37,0.00,,,0.05,669.000000,,2013-09-08 20:22:00,
2013-09-08 14:32:00,72.0,44.0,-100.00,SSW,203,5.0,12.0,37,0.00,,,0.05,669.000000,,2013-09-08 20:32:00,
2013-09-08 15:12:00,74.0,45.0,-100.00,SSW,207,5.0,15.0,36,0.00,,,0.05,548.000000,,2013-09-08 21:12:00,
2013-09-08 15:22:00,74.0,45.0,-100.00,SSW,207,5.0,15.0,36,0.00,,,0.05,548.000000,,2013-09-08 21:22:00,
2013-09-08 15:34:00,74.0,45.0,-100.00,SSW,207,5.0,15.0,36,0.00,,,0.05,548.000000,,2013-09-08 21:34:00,
2013-09-08 16:13:00,72.0,44.0,-100.00,SSW,209,6.0,16.0,36,0.00,,,0.05,581.000000,,2013-09-08 22:13:00,
2013-09-08 16:24:00,72.0,44.0,-100.00,SSW,209,6.0,16.0,36,0.00,,,0.05,581.000000,,2013-09-08 22:24:00,
2013-09-08 16:33:00,72.0,44.0,-100.00,SSW,209,6.0,16.0,36,0.00,,,0.05,581.000000,,2013-09-08 22:33:00,
2013-09-08 17:12:00,55.0,47.0,-100.00,West,269,4.0,19.0,73,0.00,,,0.05,70.000000,,2013-09-08 23:12:00,
2013-09-08 17:22:00,55.0,47.0,-100.00,West,269,4.0,19.0,73,0.00,,,0.05,70.000000,,2013-09-08 23:22:00,
2013-09-08 17:34:00,55.0,47.0,-100.00,West,269,4.0,19.0,73,0.00,,,0.05,70.000000,,2013-09-08 23:34:00,
2013-09-08 18:11:00,52.0,49.0,-100.00,East,83,2.0,6.0,91,0.07,,,0.08,18.000000,,2013-09-09 00:11:00,
2013-09-08 18:21:00,52.0,49.0,-100.00,East,83,2.0,6.0,91,0.07,,,0.08,18.000000,,2013-09-09 00:21:00,
2013-09-08 18:32:00,52.0,49.0,-100.00,East,83,2.0,6.0,91,0.07,,,0.08,18.000000,,2013-09-09 00:32:00,
2013-09-08 19:12:00,50.0,49.0,-100.00,SE,129,2.0,10.0,95,0.07,,,0.15,6.000000,,2013-09-09 01:12:00,
2013-09-08 19:21:00,50.0,49.0,-100.00,SE,129,2.0,10.0,95,0.07,,,0.15,6.000000,,2013-09-09 01:21:00,
2013-09-08 19:31:00,50.0,49.0,-100.00,SE,129,2.0,10.0,95,0.07,,,0.15,6.000000,,2013-09-09 01:31:00,
2013-09-08 20:11:00,50.0,49.0,-100.00,North,11,4.0,7.0,97,0.01,,,0.16,8.000000,,2013-09-09 02:11:00,
2013-09-08 20:21:00,50.0,49.0,-100.00,North,11,4.0,7.0,97,0.01,,,0.16,8.000000,,2013-09-09 02:21:00,
2013-09-08 20:32:00,50.0,49.0,-100.00,North,11,4.0,7.0,97,0.01,,,0.16,8.000000,,2013-09-09 02:32:00,
2013-09-08 21:12:00,49.0,48.0,-100.00,NW,312,0.0,3.0,97,0.00,,,0.16,1.000000,,2013-09-09 03:12:00,
2013-09-08 21:22:00,49.0,48.0,-100.00,NW,312,0.0,3.0,97,0.00,,,0.16,1.000000,,2013-09-09 03:22:00,
2013-09-08 21:34:00,49.0,48.0,-100.00,NW,312,0.0,3.0,97,0.00,,,0.16,1.000000,,2013-09-09 03:34:00,
2013-09-08 22:14:00,48.0,47.0,-100.00,West,275,1.0,4.0,98,0.00,,,0.16,0.000000,,2013-09-09 04:14:00,
2013-09-08 22:24:00,48.0,47.0,-100.00,West,275,1.0,4.0,98,0.00,,,0.16,0.000000,,2013-09-09 04:24:00,
2013-09-08 22:33:00,48.0,47.0,-100.00,West,275,1.0,4.0,98,0.00,,,0.16,0.000000,,2013-09-09 04:33:00,
2013-09-08 23:13:00,48.0,48.0,-100.00,NE,41,1.0,5.0,99,0.07,,,0.23,0.000000,,2013-09-09 05:13:00,
2013-09-08 23:23:00,48.0,48.0,-100.00,NE,41,1.0,5.0,99,0.07,,,0.23,0.000000,,2013-09-09 05:23:00,
2013-09-08 23:34:00,48.0,48.0,-100.00,NE,41,1.0,5.0,99,0.07,,,0.23,0.000000,,2013-09-09 05:34:00,